Location: Budapest
(47.4979°N, 19.0402°E)
Time: 09:16:58
(UTC+02:00)

N. Korean satellite - Pass Details

Date: 17 October 2017
Orbit: 459 x 517 km, 97.2° (Epoch: 18 October)

Event Time Altitude Azimuth Distance (km) Brightness Sun altitude
Rises 19:30:35 0° 198° (SSW) 2,529 10.4 -17.4°
Reaches altitude 10° 19:33:01 10° 215° (SW) 1,645 9.6 -17.8°
Maximum altitude 19:35:45 21° 266° (W) 1,110 9.3 -18.2°
Drops below altitude 10° 19:38:30 10° 318° (NW) 1,635 9.9 -18.7°
Sets 19:40:55 0° 334° (NNW) 2,510 10.6 -19.1°
